RH
20 9 7 6 11 46 44 49 83 63 62 81 97 100 92 85 78 65 58 62 68 76 72 71 74 68 66 55 55 64 62 79 93 79 65 62 64 74 68 76 73 89 84 50
45 33 8 6 9 50 66 62 55 59 62 92 98 83 78 86 73 64 56 58 56 59 64 70 66 63 57 55 53 62 60 79 95 85 68 67 77 73 68 71 80 98 79 40
49 50 16 8 8 55 75 69 82 61 66 91 88 90 82 72 64 59 57 58 53 58 64 68 71 67 68 58 57 55 53 73 72 76 66 80 92 83 72 77 89 79 78 59
46 44 22 9 7 52 73 81 96 97 98 88 94 83 79 79 78 64 55 55 53 61 71 72 75 69 72 67 67 61 62 86 88 74 69 78 78 80 81 83 77 80 58 70
47 53 34 12 9 37 80 92 90 90 90 93 88 75 73 77 77 84 63 65 66 60 66 62 78 72 70 70 64 64 69 95 91 84 80 83 92 80 81 78 74 76 71 70
61 63 54 30 16 27 87 89 92 93 89 89 82 80 73 71 68 76 78 72 74 78 78 76 64 57 56 61 70 73 73 95 88 86 79 86 92 87 80 81 78 67 81 61
80 71 72 54 62 33 74 88 99 94 92 93 88 88 84 76 77 70 78 69 65 76 65 62 58 59 63 62 69 62 77 81 85 90 84 94 52 63 67 68 65 64 60 56
96 82 84 65 80 66 44 85 89 100 86 78 89 96 96 74 73 79 79 82 78 73 72 76 80 78 68 75 69 65 59 77 92 92 87 73 66 76 74 71 72 58 59 54
98 99 95 87 76 87 67 54 79 85 98 90 88 86 93 86 80 78 89 83 82 77 85 80 92 96 82 95 94 77 75 73 78 93 86 97 62 63 61 62 97 60 66 69
92 97 93 95 73 87 84 74 63 76 95 82 91 90 94 95 82 83 88 84 81 75 88 90 95 88 76 91 86 96 99 98 94 89 77 82 62 62 65 95 78 56 64 65
95 75 88 99 85 78 86 85 82 76 75 59 67 84 98 97 95 90 84 84 83 89 87 88 88 89 89 88 82 75 86 87 89 84 91 91 62 72 81 72 60 61 62 63
88 76 88 99 99 91 98 96 88 81 94 66 58 50 52 60 88 98 100 81 80 75 90 91 91 93 92 86 94 81 91 78 82 72 71 55 65 71 64 64 60 60 61 63
90 94 85 99 98 73 88 93 97 100 100 87 86 41 40 43 30 64 93 92 79 77 73 83 91 84 90 97 94 87 79 72 84 83 70 70 56 56 54 58 61 62 62 63
96 97 94 99 97 81 90 97 100 96 99 99 68 58 51 53 65 68 74 88 98 91 89 86 90 90 81 89 81 88 79 79 79 83 74 62 62 61 62 64 66 66 65 62
98 94 95 99 96 82 86 88 87 98 99 92 83 68 68 48 40 79 92 82 80 100 88 88 93 90 89 95 95 98 84 81 87 88 69 73 69 70 77 74 71 66 66 63
99 95 99 98 91 79 96 92 79 94 100 99 94 60 63 91 51 66 100 100 100 100 81 85 84 83 79 95 96 75 73 71 71 81 82 82 78 78 80 77 74 70 69 65
98 98 99 79 52 97 97 82 80 89 88 99 96 96 99 100 96 97 100 100 100 96 85 88 87 88 82 88 85 74 82 82 76 76 80 80 79 75 71 68 72 73 70 67
96 99 69 73 88 84 92 89 88 90 96 94 98 94 99 82 100 99 100 99 97 92 84 94 97 95 88 97 71 76 75 75 78 78 80 77 78 79 74 70 71 74 71 70
98 70 80 92 93 84 83 93 96 98 96 98 99 97 98 92 96 97 94 88 97 96 96 95 95 95 97 79 79 78 81 81 82 76 73 84 85 86 87 82 76 76 73 74
91 73 100 96 91 95 95 99 99 100 99 98 99 99 99 96 87 98 95 95 99 100 87 94 99 95 80 83 80 77 80 74 74 86 88 90 87 90 89 90 86 86 79 76
51 91 99 98 96 98 99 99 99 98 100 99 98 100 98 98 96 95 97 99 100 99 94 100 100 97 94 89 79 74 69 75 91 94 90 98 100 99 98 92 90 86 85 84
66 64 91 98 98 100 100 99 99 100 98 99 98 95 99 98 96 94 98 98 99 99 98 100 88 91 93 84 75 72 76 82 88 90 92 100 100 100 99 92 89 85 84 85
63 96 100 100 98 98 98 95 97 99 100 97 99 98 100 96 90 98 99 100 99 93 99 95 92 92 82 76 76 80 85 84 86 88 91 97 100 100 100 89 83 82 82 85
64 99 98 98 98 99 94 95 99 100 100 99 100 100 98 98 95 97 98 96 95 99 99 97 94 87 85 82 80 82 81 81 84 86 86 85 84 82 92 100 96 88 79 75
74 99 98 98 96 98 99 99 100 100 100 100 99 100 99 99 94 96 98 99 99 92 83 93 89 82 81 74 73 76 73 68 68 71 74 78 81 82 81 85 97 100 99 94
72 98 99 90 98 95 99 99 99 100 99 100 100 97 99 95 91 99 98 97 96 86 96 85 82 82 68 57 49 48 52 48 46 49 55 62 69 76 80 82 83 92 99 99
97 93 87 91 93 96 91 100 99 100 100 99 100 98 93 94 99 99 95 95 89 73 78 80 76 68 65 66 49 38 33 29 25 25 31 41 54 66 74 74 80 81 82 92
Wind_Speed
29 32 32 33 28 19 13 5 3 13 9 6 3 2 4 4 3 3 2 4 4 4 4 3 2 3 3 4 5 4 1 4 3 1 1 1 2 4 4 3 4 1 1 5
29 32 32 31 29 19 14 5 4 8 8 3 3 4 2 2 6 4 3 2 1 1 4 4 3 2 3 5 3 6 5 2 3 1 1 2 3 4 3 4 3 5 4 4
27 30 32 29 28 16 11 3 2 5 8 5 2 3 4 3 4 2 3 2 3 3 3 5 3 2 3 4 3 6 6 3 4 5 3 3 3 4 5 5 3 3 5 5
26 28 30 28 26 16 7 5 2 2 2 3 4 1 1 2 4 5 4 3 2 3 3 2 3 2 3 3 8 3 3 3 2 2 1 3 3 5 9 7 4 6 3 5
23 26 30 27 24 18 9 4 2 2 2 4 2 3 2 1 0 1 2 5 1 3 4 5 7 6 3 4 1 3 2 3 2 2 1 5 4 7 9 11 5 9 9 17
20 23 27 26 22 17 8 6 3 2 3 3 1 2 3 2 2 1 4 3 4 4 2 2 2 2 7 8 7 3 4 5 3 3 2 3 6 9 13 6 5 9 8 10
19 20 23 22 19 15 8 9 4 3 2 2 0 3 2 2 3 0 2 4 3 6 13 14 13 14 12 8 4 5 5 5 2 3 1 1 4 3 6 13 3 12 8 10
18 18 19 20 15 15 10 6 5 4 3 3 5 4 4 3 2 2 1 2 5 12 3 3 4 1 2 3 3 2 2 4 2 2 2 6 1 3 6 6 5 10 14 14
12 16 16 19 13 13 13 6 3 2 4 2 3 3 4 2 1 2 1 4 8 6 2 2 3 4 4 3 2 4 4 4 3 2 3 4 4 2 6 3 1 0 7 7
12 14 15 15 14 10 12 9 9 2 4 5 3 3 4 4 2 2 2 5 3 3 2 2 3 3 3 5 7 4 3 1 5 4 3 6 6 4 2 2 2 6 5 8
15 12 15 12 14 8 10 10 11 7 5 14 13 10 8 6 4 2 2 4 1 2 3 3 3 3 5 3 4 6 7 7 4 3 3 7 7 5 5 2 4 7 8 6
16 13 15 11 11 11 12 14 11 12 10 12 26 30 29 24 24 9 4 2 4 7 3 1 2 2 1 3 3 2 4 6 5 7 5 5 12 7 4 11 14 10 10 9
19 17 17 10 12 11 10 15 13 17 14 24 18 6 7 16 32 27 6 6 4 5 4 5 2 2 3 4 4 3 3 6 2 1 4 8 12 10 14 12 4 10 12 11
19 15 13 12 13 14 13 17 16 14 9 5 9 6 10 11 15 23 33 13 2 4 7 3 2 2 5 3 2 3 4 6 5 4 6 8 2 2 2 4 11 14 14 13
14 16 16 12 13 16 19 19 18 16 11 4 15 36 10 17 23 18 27 28 27 7 4 2 3 2 3 1 1 3 7 6 4 5 5 2 5 9 14 18 19 16 14 12
15 15 12 14 18 16 11 5 2 2 16 5 4 9 10 6 19 21 27 21 21 8 7 4 3 3 4 2 3 5 9 7 6 2 3 9 13 15 11 14 15 12 10 10
16 11 15 21 12 7 7 4 5 6 4 4 5 5 7 3 13 15 21 22 11 7 5 4 4 5 5 2 4 4 11 9 6 6 7 7 6 7 19 17 15 11 9 9
15 16 19 7 4 4 6 7 9 7 7 4 3 4 6 11 6 5 9 10 7 8 4 4 3 6 4 4 6 8 9 8 8 9 7 12 17 19 19 16 13 10 9 9
15 16 3 3 3 3 3 3 2 3 6 4 3 3 1 2 5 3 3 4 2 4 2 3 5 3 5 5 9 11 8 5 6 11 12 13 12 16 15 13 13 12 10 11
10 6 3 3 3 4 3 3 2 4 5 5 4 5 2 3 3 3 2 3 1 2 3 5 3 4 7 9 9 7 7 8 9 10 10 14 13 14 15 14 14 15 13 11
6 2 3 4 5 2 3 3 4 5 3 6 6 5 3 6 1 2 2 2 1 2 2 2 2 3 3 8 5 5 6 6 7 9 10 11 13 15 16 15 13 14 13 11
6 7 8 4 3 3 3 2 2 3 2 2 2 3 4 3 3 3 1 1 1 2 4 2 3 1 6 6 4 4 4 5 7 7 8 8 9 9 11 11 8 10 13 13
7 2 2 3 3 3 3 3 2 2 2 3 4 2 2 1 2 3 1 2 1 4 2 3 3 5 6 4 3 2 2 2 3 4 5 6 7 6 8 7 5 5 7 9
3 3 3 3 3 3 2 1 2 2 3 7 6 2 2 2 2 1 1 1 1 2 3 4 2 10 8 6 5 4 4 4 5 6 7 7 8 8 6 6 5 5 3 3
4 4 4 3 4 4 3 4 4 3 5 4 4 2 1 1 1 1 1 2 3 4 4 3 10 13 10 8 6 6 6 7 8 9 9 9 9 8 6 5 5 4 3 3
4 4 2 3 4 3 3 3 4 4 4 5 3 2 2 2 2 3 5 2 4 3 3 7 17 15 11 7 4 3 3 5 7 8 9 9 10 9 9 8 7 5 4 4
3 4 8 8 7 7 4 3 3 5 3 1 2 3 4 1 3 3 3 4 3 4 7 16 16 14 11 6 2 1 2 4 7 8 8 8 9 9 8 7 8 7 6 6
Wind_Direction
9 4 3 358 352 356 0 9 33 357 8 47 70 13 339 332 312 6 84 103 102 133 164 105 114 159 221 164 146 85 58 111 120 133 160 258 170 177 153 132 217 63 56 276
356 4 3 359 356 349 9 358 334 5 23 86 345 320 311 292 12 19 33 93 89 138 131 113 131 127 349 163 106 157 179 66 92 87 8 347 197 188 130 98 75 199 157 257
355 352 359 359 357 349 359 349 29 14 52 50 90 26 345 358 11 43 49 98 93 99 67 25 134 105 354 194 80 115 108 104 148 179 185 130 173 183 188 138 145 174 233 287
355 351 355 357 359 354 354 22 74 23 347 360 345 275 200 356 358 6 27 42 89 133 104 82 117 114 115 37 145 66 93 113 103 263 174 161 202 184 189 201 179 185 244 229
356 354 353 354 1 7 36 33 27 352 266 301 310 327 343 36 304 21 350 129 206 116 146 179 190 147 157 178 45 101 25 121 109 343 75 209 242 229 205 220 223 261 268 288
351 354 353 354 4 13 48 21 12 1 305 335 117 288 301 334 262 118 95 176 102 51 327 195 198 184 153 160 140 128 123 132 106 260 320 292 272 222 202 183 200 206 214 233
338 353 356 354 7 21 31 20 351 346 291 345 221 326 316 320 326 152 21 87 97 136 98 98 94 86 92 103 81 137 125 117 111 216 356 260 245 174 192 199 207 218 256 263
329 342 356 352 0 16 18 26 16 357 290 305 316 349 295 302 350 45 65 51 132 156 109 72 53 66 92 72 60 126 157 122 108 124 241 288 302 178 139 169 248 212 228 258
326 325 349 357 347 356 8 3 16 325 321 268 307 311 315 284 202 15 87 121 146 156 87 97 163 197 198 174 108 24 76 93 120 168 244 231 242 142 157 122 279 44 202 257
313 315 332 339 349 334 349 359 357 309 280 284 271 256 283 293 268 190 175 169 160 179 112 146 183 226 178 169 180 170 136 136 179 202 258 283 241 162 145 143 162 285 261 279
316 306 321 323 347 320 319 324 333 342 264 271 251 242 253 288 249 193 158 113 202 73 159 172 190 178 212 151 193 183 179 178 184 167 215 261 173 129 166 216 300 294 301 305
309 302 301 304 331 333 309 308 301 301 284 275 290 283 265 250 255 281 266 267 186 177 109 207 116 163 121 179 204 122 204 183 178 192 210 252 188 146 206 279 293 295 311 322
306 293 294 303 326 326 287 286 289 291 268 289 277 284 294 261 235 234 230 215 208 193 181 157 164 166 137 169 237 195 237 186 212 143 229 226 255 229 262 279 277 307 311 313
314 306 270 314 317 318 293 287 288 287 282 277 279 291 302 280 245 230 222 205 168 230 176 132 147 212 183 199 203 195 202 149 190 245 282 278 263 181 339 290 322 319 306 302
310 308 277 317 313 309 296 291 283 271 244 263 290 299 328 252 235 233 215 230 239 248 150 134 207 161 146 119 116 241 193 192 174 221 179 183 268 316 308 292 301 303 292 288
309 315 318 307 303 298 303 304 14 308 231 279 298 306 303 264 211 214 208 231 221 231 170 164 207 224 157 195 224 233 220 211 200 214 246 278 295 303 296 312 311 298 276 270
308 305 300 306 299 258 244 259 302 329 192 262 293 279 290 161 170 184 216 227 201 198 151 169 158 192 190 228 238 212 190 200 210 244 277 288 274 269 295 309 308 281 274 265
314 306 312 286 273 289 273 262 276 306 184 251 273 274 313 161 142 193 151 175 178 162 156 152 180 172 207 249 213 197 203 228 250 236 259 291 295 299 297 292 288 278 264 265
310 313 294 270 274 271 300 296 255 318 217 293 271 274 39 234 123 116 96 123 111 153 186 183 176 166 218 221 200 198 215 233 226 266 291 302 298 304 304 294 272 267 270 274
300 308 248 252 236 265 267 169 233 211 217 228 258 268 265 355 86 74 75 116 182 180 200 166 209 251 211 198 192 207 242 272 285 303 310 310 305 310 309 293 274 261 262 267
329 249 253 263 271 262 228 239 214 200 235 215 243 268 343 20 103 110 134 161 162 174 182 222 230 255 165 187 197 231 260 274 291 293 301 303 301 306 305 301 275 254 249 255
296 280 279 271 221 235 243 228 224 221 268 231 260 301 347 342 52 91 143 137 102 196 142 218 249 164 151 172 198 245 272 292 295 299 307 314 309 306 311 312 293 258 252 253
294 240 264 218 216 231 226 205 236 249 294 332 333 297 329 345 94 84 87 203 161 137 207 234 232 145 154 159 174 205 332 324 324 330 326 327 327 325 342 351 335 291 257 250
243 221 256 214 202 230 220 261 319 318 302 326 321 306 1 355 52 178 144 169 172 237 234 240 220 173 157 137 132 132 81 55 42 30 16 2 349 352 345 354 20 17 345 278
226 203 234 234 306 274 280 277 286 305 319 324 311 263 342 30 143 199 67 203 239 222 231 235 172 165 155 142 128 112 89 67 53 43 36 28 17 8 0 339 326 335 310 289
230 230 272 263 321 309 301 286 276 303 308 308 253 270 165 243 201 192 216 203 230 252 217 169 164 167 161 147 123 97 72 40 25 15 12 9 7 11 11 1 347 326 298 285
230 249 233 242 257 255 275 298 277 279 299 254 289 216 222 107 189 224 200 207 221 206 183 172 174 173 170 170 146 55 16 1 355 351 345 345 346 345 338 337 350 346 322 295